Theta_e
315 315 316 315 314 312 311 309 309 310 310 310 310 310 311 311 311 311 313 314 312 311 312 313 316 318 317 319 320 320 322 322 323 322 323 323 323 323 323 324 325 332 340 348 352
314 315 315 315 316 316 314 311 309 309 310 310 311 311 311 311 311 313 313 312 312 311 317 317 317 317 317 318 320 321 322 322 323 322 322 322 323 323 323 323 325 330 333 344 351
313 313 314 314 315 316 316 316 312 310 309 309 310 310 310 310 314 316 314 312 312 311 316 316 316 317 318 318 319 321 322 322 321 320 321 322 322 322 322 324 325 328 326 336 346
310 312 312 313 314 314 315 316 316 313 311 309 309 310 310 310 318 318 316 314 316 312 315 314 315 316 317 318 319 321 321 321 321 321 321 322 321 322 322 323 325 324 323 323 340
308 309 310 312 313 313 314 315 316 316 313 310 309 309 311 317 315 316 317 315 312 312 313 315 315 316 318 318 318 320 320 320 320 321 319 319 320 321 322 322 323 323 323 325 326
308 307 308 309 311 312 313 315 316 316 315 311 309 309 312 316 314 311 316 314 314 314 314 316 317 316 317 317 318 318 318 318 319 319 319 320 320 321 322 322 322 323 324 328 338
308 307 307 308 309 310 313 315 316 316 314 311 310 309 313 315 313 311 311 316 315 316 317 316 315 315 317 318 318 319 320 320 321 320 321 320 321 322 321 322 323 324 324 324 334
308 307 307 310 311 311 313 316 315 313 312 310 309 309 314 314 313 312 316 316 315 316 315 315 314 315 317 319 319 320 320 321 322 320 320 320 321 323 322 322 322 323 324 323 324
308 307 310 313 314 314 315 314 314 314 315 313 312 314 318 315 314 314 318 317 316 316 314 314 314 317 318 320 321 321 321 321 321 320 321 321 321 323 321 322 322 323 324 323 323
307 308 312 314 315 314 313 314 313 314 315 315 315 319 318 318 319 317 315 317 316 316 316 317 316 319 320 320 321 321 321 320 320 320 320 321 321 322 321 321 322 323 323 323 325
307 310 312 315 313 313 313 314 317 319 317 317 316 316 316 316 316 317 317 318 317 318 321 319 320 320 320 320 320 320 319 320 320 320 319 320 320 321 321 321 322 322 323 327 328
307 311 312 312 313 312 314 314 313 312 315 315 314 315 315 315 316 317 318 317 319 321 320 320 320 320 320 319 320 320 320 320 319 319 319 321 321 321 322 322 324 326 327 328 329
307 311 312 312 312 312 313 312 312 311 316 316 315 315 315 316 316 317 318 319 319 321 321 321 320 320 319 319 319 320 319 319 319 321 321 321 322 322 323 325 326 327 328 330 331
307 310 313 313 314 314 315 314 312 312 320 318 317 316 316 317 318 316 316 318 322 321 321 322 321 319 319 319 320 320 319 319 320 321 321 322 320 323 324 326 328 327 329 331 333
306 309 313 314 314 315 314 313 312 313 321 317 317 315 316 317 317 318 316 317 320 322 322 321 320 320 320 320 320 320 320 320 321 322 322 323 322 324 324 325 329 330 331 332 333
306 308 312 314 315 314 315 313 313 320 320 317 315 316 317 317 317 317 317 317 318 321 321 321 319 319 320 320 320 320 320 321 322 322 323 323 323 322 324 329 330 331 331 331 332
306 307 312 313 313 312 315 315 319 318 316 315 314 315 316 317 318 317 317 318 320 321 322 321 320 317 316 320 320 321 322 324 324 322 322 323 323 324 329 329 330 331 330 330 328
306 307 312 314 309 312 314 318 318 316 315 313 314 316 316 316 317 318 318 317 317 319 322 323 320 317 315 317 320 321 323 324 325 325 323 323 322 329 327 328 328 328 327 325 324
306 310 315 311 308 312 316 318 317 314 313 313 315 316 316 316 316 318 318 317 316 318 320 321 320 314 313 315 316 320 320 319 323 323 324 324 329 328 327 327 326 327 322 321 321
306 312 314 307 311 314 318 315 315 312 312 314 315 314 316 316 316 317 318 316 315 315 317 318 320 314 314 313 315 316 317 321 320 324 327 324 325 326 329 327 324 322 321 320 318
308 312 311 307 313 315 316 316 314 311 311 313 314 314 315 314 314 315 317 316 314 315 316 318 321 319 316 317 318 318 317 318 320 322 325 326 327 328 325 323 322 320 317 318 318
311 313 309 312 313 313 313 313 311 313 312 312 313 313 314 314 315 315 315 314 311 312 315 318 320 322 321 316 314 316 319 320 322 321 320 321 323 322 318 316 315 315 315 315 315
311 312 311 311 313 313 313 312 312 312 312 312 312 312 312 313 314 312 312 311 311 312 315 315 317 319 317 314 313 315 316 316 318 320 322 322 320 315 314 314 314 314 314 314 313
311 314 312 311 311 313 313 313 313 311 310 310 311 310 312 313 312 313 312 311 310 311 309 310 314 315 317 316 314 313 313 313 315 318 319 319 318 317 314 314 313 314 314 314 314
310 313 310 313 313 312 312 311 311 312 310 310 312 311 312 313 313 313 312 312 311 310 311 312 313 313 312 311 311 311 311 312 312 313 314 314 313 312 312 313 313 312 312 312 312
311 311 310 311 311 311 309 312 311 310 310 311 311 310 310 312 312 312 311 312 313 312 312 313 314 313 312 311 311 311 311 311 311 311 311 311 310 311 312 312 312 312 312 312 311
307 308 309 309 311 311 312 311 310 309 309 308 308 309 310 310 308 309 309 309 311 312 313 314 313 313 312 312 311 312 311 311 311 311 309 310 311 313 312 312 312 312 311 311 310
Wind_Speed
20 19 18 18 18 17 15 13 11 9 8 7 7 8 8 10 12 14 14 10 10 13 13 17 15 12 12 11 9 8 8 12 14 9 7 4 6 6 6 12 6 2 4 4 4
21 20 19 19 18 18 17 15 13 11 9 8 8 8 9 10 13 16 13 10 11 16 15 18 18 16 15 13 9 13 11 13 2 7 6 4 5 7 9 9 10 5 1 1 7
22 21 21 20 19 18 17 16 14 13 12 10 10 10 9 10 10 3 2 14 13 17 14 13 13 15 13 11 15 12 15 7 7 10 7 7 8 8 12 12 13 5 5 4 7
25 23 22 21 20 19 17 16 15 14 13 12 11 10 8 6 3 4 4 7 14 20 16 13 16 15 14 11 15 11 14 11 7 8 11 10 8 12 13 16 10 11 12 9 11
26 26 25 23 21 21 19 16 15 14 14 13 11 10 7 5 7 9 7 8 16 19 18 16 16 15 13 13 11 16 11 10 12 11 11 11 14 14 14 15 11 9 8 7 11
28 27 26 25 23 22 20 17 15 14 13 11 11 10 5 10 8 8 11 12 14 17 16 15 10 14 9 12 14 5 17 11 9 11 10 13 14 10 13 10 12 8 6 7 5
30 30 29 26 23 22 20 17 14 13 11 10 9 10 8 12 7 7 11 13 13 14 14 13 10 12 6 8 10 8 10 12 14 14 11 11 14 16 16 8 12 10 7 5 7
31 32 30 27 24 20 19 15 11 10 8 7 8 6 7 10 5 10 12 13 13 11 7 12 10 13 11 3 7 11 10 13 7 10 12 11 13 14 8 8 13 13 9 6 4
32 33 29 27 23 19 13 10 8 8 6 3 2 4 3 5 3 10 13 13 13 11 6 8 12 11 11 12 10 10 12 11 8 8 5 14 11 8 10 8 10 13 11 7 4
32 30 28 26 20 13 11 7 7 6 7 4 1 3 2 3 3 5 13 13 13 14 10 11 12 10 12 13 13 11 13 9 10 8 10 11 12 8 12 10 10 7 7 4 2
31 26 27 22 15 13 12 9 7 2 6 7 11 9 12 11 11 6 8 14 13 17 15 17 12 14 16 15 14 6 8 8 6 3 8 13 13 12 12 14 15 8 3 3 7
30 21 22 16 16 8 15 8 7 7 8 4 3 5 5 7 6 7 11 17 17 17 18 9 17 16 7 8 10 11 12 12 6 7 9 8 12 12 11 5 2 1 4 7 10
29 19 17 15 15 13 10 15 15 8 6 3 2 6 6 1 2 6 13 19 18 19 17 18 2 7 11 12 13 13 13 10 10 8 10 8 13 11 9 10 7 7 6 8 11
27 19 15 16 7 13 8 20 13 4 4 5 4 7 6 4 5 3 12 15 13 20 19 17 17 6 11 14 14 15 12 12 10 10 11 13 11 15 15 9 6 7 8 10 12
27 18 13 14 10 9 16 17 6 2 4 6 7 6 5 7 8 3 3 18 17 15 15 14 14 14 13 13 12 14 9 13 13 12 13 13 9 8 12 11 4 7 10 12 13
26 17 11 14 12 14 17 10 1 6 2 2 3 10 9 12 5 3 3 7 8 15 12 16 4 3 5 1 8 4 9 11 11 12 15 17 13 12 12 8 5 7 10 11 13
26 16 7 11 15 16 13 3 5 3 1 4 6 9 5 6 8 8 2 3 7 12 17 15 8 3 2 10 8 11 12 10 12 12 14 15 16 5 7 9 7 7 8 10 11
26 16 3 8 17 12 7 6 4 3 4 3 7 7 3 9 4 6 2 2 4 8 11 16 11 5 3 5 8 13 14 12 15 13 13 8 10 6 8 8 9 8 7 9 11
24 8 6 13 14 8 7 3 5 4 5 9 9 5 2 3 7 6 3 2 6 11 5 6 6 4 4 6 3 8 11 7 10 9 10 6 7 6 7 7 7 7 6 8 10
22 4 6 18 8 4 3 4 1 4 6 5 6 2 6 8 8 6 3 5 2 6 10 2 3 5 2 3 4 3 2 4 4 7 13 11 8 2 12 9 7 5 4 6 7
14 2 8 16 6 2 3 4 0 2 6 5 5 8 6 8 6 8 4 5 6 6 6 6 5 6 5 8 5 6 7 5 4 8 6 7 2 7 6 5 0 3 6 7 8
9 2 13 7 3 3 4 3 2 2 3 3 5 5 4 6 8 4 5 5 9 6 7 2 4 10 13 7 7 11 12 14 10 15 11 12 5 5 6 4 3 7 7 9 10
10 4 9 8 3 4 2 1 1 2 3 2 2 2 2 4 4 3 4 3 7 4 5 1 4 7 9 8 7 10 9 13 16 13 17 11 2 7 6 4 4 4 6 7 9
6 3 4 9 5 4 3 2 1 0 1 2 3 4 5 6 4 4 5 1 5 4 5 3 6 9 10 7 6 4 7 8 10 11 15 16 8 9 7 2 1 2 4 6 7
4 3 3 3 4 4 3 1 3 1 2 3 4 3 4 5 7 9 6 8 8 2 4 4 11 6 10 7 8 10 9 9 11 11 10 9 7 6 7 2 3 3 5 8 10
5 4 1 4 2 5 2 2 4 1 3 2 6 2 5 7 7 13 10 9 7 3 5 3 7 6 11 4 9 11 12 12 13 12 12 11 13 11 2 6 7 6 7 11 12
3 2 3 3 2 4 1 1 1 4 3 3 3 6 8 7 9 11 10 12 12 8 6 7 8 7 11 2 9 13 15 17 17 13 10 11 3 4 5 6 8 10 13 15 15
Wind_Direction
7 4 0 357 354 351 348 344 338 327 322 310 302 301 302 300 296 288 273 244 223 202 188 193 189 190 189 207 210 218 242 244 238 246 232 171 254 259 278 271 275 286 324 300 185
1 359 355 352 347 343 340 338 334 323 312 307 300 294 296 300 300 279 263 225 207 192 173 171 179 184 196 210 207 219 235 251 302 281 249 206 244 281 284 248 260 219 76 37 181
356 352 350 348 344 336 331 328 326 321 308 298 296 298 301 308 308 205 224 196 198 186 178 182 181 182 208 206 209 219 250 267 223 249 247 273 261 250 260 261 233 273 305 252 207
359 353 345 342 340 335 324 316 315 316 306 295 288 294 303 308 316 189 172 182 187 177 182 184 187 199 217 212 216 251 237 248 247 230 250 252 277 258 248 255 275 288 291 261 223
357 351 346 340 334 332 326 312 304 305 305 292 284 290 313 261 256 219 204 175 169 181 188 190 195 208 223 222 217 235 250 245 244 242 248 259 252 255 253 252 262 281 291 259 234
354 349 345 338 332 329 325 317 301 299 298 284 275 278 286 256 253 230 203 184 178 179 192 199 211 218 270 230 220 230 239 242 238 238 232 244 248 235 244 238 260 260 261 239 223
351 347 344 338 332 327 325 318 306 299 291 276 265 272 259 260 255 227 200 188 188 187 197 205 222 199 219 217 225 228 238 222 234 237 234 232 246 230 244 251 249 247 254 252 228
351 347 346 341 335 330 328 322 316 307 293 266 255 262 259 256 248 213 185 188 187 193 204 213 210 220 225 157 197 228 239 248 189 218 222 220 246 205 191 242 248 241 251 263 262
351 348 348 344 340 338 340 337 333 329 338 314 259 215 265 307 252 213 192 188 182 192 207 186 178 212 194 213 212 205 249 214 164 207 190 212 246 174 200 234 250 254 251 262 283
352 351 351 349 352 10 4 354 341 7 38 41 75 238 232 72 122 154 188 184 173 173 176 182 201 214 222 214 225 226 220 225 250 160 224 214 246 235 232 233 237 244 253 276 343
355 358 1 7 32 29 26 14 352 73 322 305 310 285 291 278 253 231 185 187 192 191 204 200 218 219 218 223 265 261 259 254 235 237 252 247 253 245 228 225 232 214 218 335 348
358 5 9 27 13 27 36 45 26 315 308 335 316 354 317 256 256 199 193 192 201 212 210 181 228 235 232 227 233 233 237 240 255 230 222 225 242 234 222 191 139 187 40 359 346
358 3 8 6 21 24 17 1 342 346 264 2 24 1 10 50 233 236 203 206 206 218 202 226 150 232 219 209 222 228 236 230 255 163 236 257 240 213 137 145 115 66 40 16 -0
357 359 3 7 17 6 5 342 332 322 264 37 31 30 359 317 213 299 218 211 215 227 219 236 248 222 217 224 219 237 213 242 225 225 244 196 259 184 163 147 93 49 33 20 13
357 354 359 0 355 1 336 342 332 281 247 24 20 360 334 3 336 67 215 215 239 219 215 222 226 220 228 236 226 252 224 222 233 242 257 203 252 197 154 166 71 54 49 41 33
356 350 345 357 1 338 341 341 302 233 107 33 10 354 351 25 32 336 224 222 249 245 221 248 137 263 291 327 246 251 225 236 241 246 237 238 213 238 182 112 107 81 63 53 45
355 345 315 338 338 337 333 311 251 294 62 27 344 340 341 2 26 24 17 196 262 214 217 201 183 156 313 238 208 219 225 227 221 226 242 239 223 239 87 95 99 95 80 60 46
356 349 326 340 341 339 331 253 257 53 12 5 329 314 19 10 37 6 279 179 52 280 278 221 184 228 30 264 291 219 242 247 254 246 235 146 218 114 114 118 110 98 77 60 47
356 25 27 346 344 345 285 273 25 16 355 338 307 286 170 17 325 319 8 353 27 7 282 247 196 141 69 40 267 184 230 352 289 276 279 217 117 147 151 147 150 126 83 56 44
354 43 2 350 353 351 272 54 58 24 337 316 305 323 311 341 315 334 286 63 32 11 344 51 251 204 118 235 90 295 72 222 229 270 262 259 255 210 174 152 138 119 66 38 26
2 323 339 350 45 21 32 58 347 50 344 321 322 299 312 324 315 315 300 83 9 326 312 301 267 179 211 211 248 180 196 229 267 229 245 263 259 13 125 100 207 41 14 1 336
357 309 347 33 66 31 35 357 344 314 339 301 288 295 298 315 302 291 294 333 353 300 294 32 291 263 254 28 285 264 269 278 249 231 239 259 243 131 121 109 66 61 40 31 15
338 324 352 18 22 38 58 190 280 330 2 315 272 305 315 301 291 275 295 4 356 315 340 156 217 250 213 204 206 245 236 242 257 273 257 243 232 142 131 117 70 32 22 18 8
333 321 41 46 57 350 0 85 244 331 222 289 302 260 275 260 227 280 275 298 338 356 12 298 275 278 287 2 325 267 237 232 238 244 253 249 224 220 184 276 306 355 352 350 350
353 59 10 345 47 355 305 310 290 241 225 255 199 278 294 282 285 266 290 281 247 261 242 267 259 250 268 289 279 277 263 235 239 260 269 294 293 266 304 299 269 305 321 326 328
326 324 288 306 285 277 148 157 292 322 280 215 275 298 286 278 299 302 305 275 280 242 246 211 262 285 276 245 268 272 263 255 260 258 260 264 271 271 65 254 263 282 301 310 315
324 308 286 131 219 276 49 61 218 310 232 280 314 296 279 311 313 293 285 280 280 285 273 256 263 249 271 172 282 269 262 255 246 241 256 250 12 101 212 263 292 299 304 308 317